Regional Weather Roundup
Issued by NWS Northern Indiana

Home | Current Version | Previous Version | Text Only | Print | Product List | Glossary Off
Versions: 1 2 3 4 5 6 7 8 9 10 11 12 13 14 15 16 17 18 19 20 21 22 23 24 25 26 27 28 29 30 31 32 33 34 35 36 37 38 39 40 41 42 43 44 45 46 47 48 49 50

000
ASUS43 KIWX 310210
RWRIWX

KIWX WEATHER ROUNDUP
NATIONAL WEATHER SERVICE NORTHERN INDIANA
900 PM EST FRI JAN 30 2015

NOTE: "FAIR" INDICATES FEW OR NO CLOUDS BELOW 12,000 FEET WITH NO
SIGNIFICANT WEATHER AND/OR OBSTRUCTIONS TO VISIBILITY.

* THESE STATIONS ARE NOT UNDER NWS QUALITY CONTROL. THEY ALSO MAY NOT
  REPORT WEATHER SUCH AS PRECIPITATION OR FOG.

INZ001>027-310300-
NORTHERN INDIANA

CITY           SKY/WX    TMP DP  RH WIND       PRES   REMARKS
GARY*          CLEAR     21  14  73 CALM      30.43F
VALPARAISO     CLEAR     22  14  71 S3        30.42F
MICHIGAN CITY* PTCLDY    19  12  73 CALM      30.43F
LAPORTE*       CLOUDY    19  15  85 CALM      30.42F
KNOX*          CLEAR     19   9  63 CALM      30.42F
SOUTH BEND     CLEAR     20  13  74 CALM      30.43S
ELKHART*       CLEAR     19  14  79 CALM      30.42F
GOSHEN         CLEAR     20  14  77 CALM      30.42S
MONTICELLO*    CLEAR     22  18  84 CALM      30.44F
LOGANSPORT*    CLEAR     23  19  86 CALM      30.45F
ROCHESTER*     CLEAR     23  19  86 S3        30.43F
WARSAW*        CLEAR     19  16  86 CALM      30.42F
ANGOLA*        MOCLDY    16  12  86 CALM      30.40S
FORT WAYNE     PTCLDY    21  14  74 CALM      30.44R
HUNTINGTON*    CLEAR     20  13  74 CALM      30.43S
PERU/GRISSOM   CLEAR     21  17  83 S3        30.43S
MARION*        CLEAR     21  17  86 CALM      30.45R

$$
INZ028>050-310300-
CENTRAL INDIANA

CITY           SKY/WX    TMP DP  RH WIND       PRES   REMARKS
LAFAYETTE      CLEAR     21  17  84 CALM      30.45S
KOKOMO*        CLEAR     23  16  74 W3        30.44S
MUNCIE*        CLEAR     21  15  78 CALM      30.44R
INDIANAPOLIS   CLEAR     24  15  68 CALM      30.44S

$$
MIZ043>046-050>051-056>058-064>065-071>073-077>080-310300-
SOUTHWEST LOWER MICHIGAN

CITY           SKY/WX    TMP DP  RH WIND       PRES   REMARKS
BATTLE CREEK   CLOUDY    21  12  68 W6        30.41R WCI  13
BENTON HARBOR  MOCLDY    17  14  88 SE3       30.42F
COLDWATER*     FAIR      16  10  76 W5        30.40S WCI   9
HILLSDALE*     CLEAR     12   5  72 CALM      30.38S
HOLLAND        PTCLDY    23  14  68 SW3       30.40F
GRAND RAPIDS   MOCLDY    20  11  68 CALM      30.39F
KALAMAZOO      CLOUDY    22  13  68 W5        30.41S WCI  16
STURGIS*       PTCLDY    19  12  73 CALM      30.40F
THREE RIVERS*  FAIR      22  14  72 CALM      30.41F

$$
OHZ001>008-015>018-024>025-310300-
NORTHWEST OHIO

CITY           SKY/WX    TMP DP  RH WIND       PRES   REMARKS
WAUSEON*       FAIR      16   9  73 CALM      30.42S
DEFIANCE       CLEAR     18  10  71 CALM      30.44S
FINDLAY        CLEAR     14   7  73 S3        30.41F
TOLEDO EXPRESS CLEAR     13   7  77 CALM      30.43S
TOLEDO METCALF CLEAR     16   7  67 CALM      30.44F
LIMA           CLEAR     19  10  68 CALM      30.41F

$$
AND FOR LAKE MICHIGAN COASTAL AND OPEN LAKE BUOY OBSERVATIONS

STATION/POSITION TEMP    WIND        PRES    VSBY  WAVE
                 AIR SEA DIR/SP/G                  HT/PER
                 (F)     (DEG/KT/KT) (MB)    (MI)  (FT/S)
CALUMET HARBOR    25     220/  2/  3   N/A
MICHIGAN CITY     23     110/  3/  4   N/A
SAINT JOSEPH      23     130/  3/  4 1029.8F

$$
&&



USA.gov is the U.S. government's official web portal to all federal, state and local government web resources and services.